Location: An Tulaigh
(53.1928°N, 8.1647°W)
Time: 23:40:48
(UTC+00:00)

Cosmos 1975 - Pass Details

Date: 15 May 2026
Orbit: 471 x 485 km, 82.5° (Epoch: 9 June)

Event Time Altitude Azimuth Distance (km) Brightness Sun altitude
Rises 23:26:49 0° 349° (N) 2,576 8.1 -16.5°
Reaches altitude 10° 23:28:57 10° 351° (N) 1,689 6.6 -16.6°
Maximum altitude 23:32:39 79° 78° (ENE) 504 2.5 -16.7°
Enters shadow 23:33:52 40° 159° (SSE) 734 2.9 -16.8°
